Location: Greenwich
(51.4790°N, 0.0090°E)
Time: 14:57:44
(UTC+01:00)

Explorer 7 - Pass Details

Date: 25 April 2024
Orbit: 467 x 625 km, 50.3° (Epoch: 24 May)

Event Time Altitude Azimuth Distance (km) Brightness Sun altitude
Rises 13:50:27 0° 276° (W) 2,914 10.6 50.5°
Reaches altitude 10° 13:52:47 10° 274° (W) 2,009 10.0 50.4°
Maximum altitude 13:57:24 70° 192° (SSW) 668 8.9 50.1°
Drops below altitude 10° 14:01:57 10° 108° (ESE) 1,979 9.7 49.8°
Sets 14:04:14 0° 106° (ESE) 2,866 10.4 49.7°
